Theta_e
316 317 321 321 321 321 320 320 320 319 319 318 319 320 321 322 321 321 324 324 323 323 323 323 324 325 326 326 327 327 328 328 328 328 326 327 328 327 327 327 327 328 327 326 326 326 330 331 327 325 323 323 323 321 320 323 325 326 328 329 328 328 328
315 318 321 322 320 320 319 319 319 319 318 318 318 319 320 320 320 321 323 323 322 322 322 322 322 322 323 324 324 325 326 327 326 326 326 326 326 326 327 326 327 327 325 325 326 325 327 330 329 324 319 319 317 315 316 320 322 324 326 327 328 328 328
318 320 321 320 319 318 318 319 319 318 318 317 316 316 317 317 317 317 318 319 320 321 321 321 320 320 321 322 324 324 324 323 323 323 322 322 323 324 325 326 327 325 321 319 321 323 323 323 324 321 316 318 318 314 313 316 318 320 322 322 324 325 326
319 321 320 319 319 319 320 320 319 317 316 316 316 316 315 315 315 314 312 313 316 318 319 319 318 319 319 321 323 322 320 319 319 319 318 319 319 321 323 326 326 324 321 318 317 319 319 318 320 318 313 315 316 314 312 312 313 315 316 316 318 321 324
319 319 318 319 320 321 320 319 317 315 314 315 315 316 315 316 316 313 310 310 312 314 315 316 317 318 318 319 320 319 317 316 316 316 316 317 318 319 319 321 322 321 320 319 317 317 316 316 317 315 312 313 315 313 312 311 311 312 312 313 314 316 318
318 317 317 317 320 321 319 317 316 314 313 313 314 315 315 315 314 310 310 312 312 312 312 313 315 316 317 318 318 317 316 315 316 316 315 315 315 315 315 315 315 314 314 314 314 314 314 313 313 312 312 313 313 313 312 311 311 311 310 310 310 311 312
318 317 315 316 318 320 318 316 315 314 312 311 312 314 314 314 312 310 310 311 311 311 310 309 310 313 314 315 317 316 315 314 314 314 314 313 313 313 313 313 313 312 312 311 311 310 311 310 310 310 311 311 311 311 311 310 310 311 310 310 309 308 309
318 317 315 315 318 319 317 314 314 314 312 310 311 312 313 312 310 310 310 310 310 310 308 306 306 307 307 309 312 315 315 314 313 313 313 312 311 311 311 312 311 310 310 311 310 310 310 310 309 309 309 311 310 309 309 309 309 310 310 310 308 306 306
319 317 316 316 318 319 316 314 314 313 311 309 310 311 311 311 310 310 310 309 310 310 307 306 305 305 305 304 306 309 312 314 313 313 312 311 310 309 310 310 308 308 310 311 311 311 310 310 311 310 309 310 310 312 315 315 311 310 309 309 308 306 306
319 317 315 315 317 319 317 316 316 313 310 309 309 310 310 310 309 310 310 310 311 310 309 307 306 304 305 305 304 304 307 311 312 312 312 311 310 307 307 308 306 307 310 311 311 310 309 308 309 310 310 309 309 315 320 319 313 310 309 308 308 307 307
319 317 315 313 317 319 317 318 317 314 310 309 309 310 310 310 308 308 310 311 312 312 311 309 307 306 305 306 306 304 305 307 310 312 312 311 309 308 307 307 307 307 309 309 309 309 309 309 309 309 310 309 309 311 314 314 313 311 309 308 308 307 307
320 318 316 314 317 319 317 318 318 316 313 311 310 311 312 311 309 307 308 310 312 312 312 311 309 307 307 306 306 306 306 306 307 309 311 310 309 308 307 307 308 309 309 308 309 309 309 309 310 310 310 309 309 309 309 310 311 310 308 308 307 306 306
319 318 317 316 317 318 317 318 319 318 317 314 311 312 313 313 311 308 307 307 310 311 311 311 310 309 309 308 306 306 306 306 306 306 308 309 310 309 307 306 307 309 310 309 308 309 309 309 309 310 310 309 308 308 307 307 308 308 307 307 306 305 305
320 318 318 317 317 317 316 318 318 319 319 317 314 313 313 314 313 311 309 307 309 310 310 311 310 310 310 311 309 307 306 307 306 306 306 307 309 310 308 307 307 307 308 309 309 309 308 308 308 309 309 308 307 306 306 306 306 306 306 306 305 304 303
319 318 318 318 317 317 317 318 319 319 319 318 318 316 315 315 314 313 312 310 310 310 311 312 312 311 311 312 312 311 309 308 308 307 307 306 307 309 309 308 308 307 306 306 308 308 308 308 308 308 308 307 307 306 306 306 305 305 305 304 303 302 300
320 319 319 318 318 318 318 319 319 319 320 319 319 318 318 317 316 315 315 313 313 312 312 312 313 312 312 311 313 313 312 311 310 309 309 307 307 308 308 308 309 309 307 306 305 307 308 307 308 308 308 307 306 305 304 303 303 303 302 302 300 299 297
320 320 319 319 319 319 319 319 319 319 320 319 319 319 318 317 317 317 317 316 315 315 314 313 313 314 313 312 313 313 313 313 312 310 310 309 309 308 308 308 308 309 309 307 305 305 306 307 308 308 307 307 305 302 300 299 299 299 299 298 297 296 295
320 320 320 320 320 320 320 319 319 320 320 320 319 319 319 317 316 317 317 318 317 317 317 316 315 315 315 313 313 313 313 313 313 312 311 311 311 310 309 309 308 308 308 307 306 305 305 306 307 307 307 307 303 299 297 297 296 295 295 295 295 295 295
320 320 320 320 320 320 320 319 319 320 319 319 319 319 319 318 317 317 317 318 318 317 318 318 317 317 317 316 316 315 314 313 313 313 313 312 312 312 311 311 310 309 308 308 307 306 305 305 305 305 306 305 302 299 299 297 295 295 294 295 295 295 295
321 320 319 319 320 320 320 320 320 320 319 319 319 319 319 319 318 317 316 317 317 318 318 318 318 318 318 318 317 317 316 315 315 314 314 314 313 313 312 312 311 311 310 309 309 308 307 306 305 304 304 303 302 301 300 298 296 296 296 296 296 296 296
321 320 319 320 320 320 320 321 320 320 320 320 320 320 319 319 319 318 317 317 316 317 318 319 319 319 319 319 318 318 317 317 316 316 315 314 314 313 313 312 312 312 311 311 310 309 308 307 306 305 304 303 302 302 300 298 297 297 297 297 296 296 296
320 320 320 320 320 320 320 320 320 319 320 320 319 319 319 319 319 319 318 318 317 318 319 319 319 319 318 319 319 319 318 318 318 317 316 315 314 314 314 313 312 312 311 311 311 310 309 307 306 305 304 303 302 302 300 299 298 298 298 297 297 297 297
320 320 320 320 320 320 319 319 320 319 318 318 318 318 318 317 317 318 318 318 318 319 320 319 319 318 318 319 319 319 319 319 318 318 317 316 315 315 314 313 313 312 312 311 311 310 309 307 306 305 304 303 302 302 300 299 299 299 298 298 297 297 297
322 321 321 321 320 319 319 319 320 319 319 318 318 318 318 317 318 318 319 319 320 321 320 320 320 320 320 320 319 319 319 319 318 318 317 316 315 316 315 314 314 313 312 311 311 310 308 307 306 304 303 303 302 301 300 300 300 299 299 298 298 297 297
322 322 321 320 320 319 320 321 321 320 320 319 319 318 318 318 317 317 317 318 319 320 320 321 320 321 321 320 320 320 319 319 319 318 317 317 316 315 315 314 314 313 312 311 311 309 308 306 305 304 304 304 303 301 300 300 300 300 299 298 298 297 297
317 317 316 315 316 316 316 317 317 316 316 315 314 314 313 313 313 312 312 313 314 316 317 318 319 319 319 319 320 320 319 319 319 319 318 318 317 317 316 315 314 313 312 311 310 309 307 305 305 304 304 303 302 301 300 300 300 300 299 299 298 297 297
311 311 311 311 311 311 310 310 309 309 309 309 309 309 309 310 310 310 310 310 311 312 313 314 315 316 316 316 317 319 320 320 320 319 319 319 318 318 316 315 313 312 312 310 309 307 307 305 305 305 304 303 302 301 301 300 300 300 299 298 298 297 297
308 308 309 308 308 307 307 307 307 308 308 308 308 308 308 308 308 308 308 309 309 310 310 311 312 313 313 314 315 317 319 319 319 319 319 319 318 318 316 314 312 311 311 309 308 307 306 305 305 304 304 303 302 301 300 300 300 299 299 298 298 297 297
307 307 307 307 306 306 306 306 306 307 306 307 307 307 306 306 306 306 306 307 307 308 309 309 310 310 311 312 314 316 317 318 318 318 317 317 317 317 316 314 311 310 309 309 307 306 305 305 305 304 303 302 301 300 300 300 299 298 298 298 297 297 296
306 307 307 307 307 306 305 305 305 305 305 305 306 307 306 305 304 304 305 306 306 307 307 308 309 310 310 310 312 315 317 317 317 317 316 315 315 314 313 311 310 309 308 307 306 305 305 305 304 303 302 301 300 300 299 298 298 297 297 296 296 295 295
306 306 307 307 307 307 306 305 305 305 305 306 306 306 305 305 304 303 303 304 305 305 306 307 308 309 310 311 313 316 317 317 315 314 313 313 312 311 309 308 307 307 307 306 306 305 304 303 302 302 301 300 300 299 298 297 296 296 295 294 294 293 293
306 306 307 307 307 307 307 306 306 306 306 306 306 306 306 305 304 304 303 303 303 304 306 307 308 310 311 313 314 316 316 315 313 311 310 309 308 307 307 306 306 306 306 305 304 303 302 302 301 301 300 299 299 298 297 296 295 295 294 293 293 293 292
305 306 306 306 306 306 306 307 306 306 306 306 306 306 307 306 306 306 305 304 304 305 307 308 309 311 313 314 314 314 314 313 311 309 308 307 306 304 304 304 303 303 303 303 302 301 300 300 300 299 298 297 297 296 295 295 294 293 293 293 292 292 292
304 305 305 305 305 305 306 306 305 305 306 306 306 307 307 307 306 306 305 305 305 306 308 309 310 311 312 313 312 311 311 311 310 308 306 305 304 303 302 301 301 301 300 300 299 299 298 298 297 296 296 295 295 294 294 293 293 292 292 292 292 292 291
304 304 305 305 305 305 305 305 305 305 305 306 307 307 307 307 306 306 305 305 306 308 309 310 310 311 311 311 309 308 308 308 308 307 305 303 302 302 301 300 299 298 298 297 297 297 297 296 296 295 294 294 293 293 293 292 292 292 292 292 291 291 291
304 304 304 304 304 304 304 304 304 303 304 306 307 307 307 307 306 306 305 306 307 308 309 309 309 309 309 308 307 306 306 306 306 305 304 303 301 300 299 298 297 297 296 296 296 296 296 295 294 294 293 293 293 293 292 292 292 292 291 291 291 290 290
303 303 303 303 303 303 303 303 303 303 303 305 306 306 307 306 306 306 306 307 307 308 308 308 308 307 306 305 304 304 303 303 302 302 302 300 299 298 297 296 296 296 296 296 295 295 294 294 293 293 293 293 293 292 292 292 291 291 291 290 290 290 290
Wind_Speed
15 15 15 13 12 11 11 10 9 8 7 7 8 8 9 9 9 9 10 10 10 11 10 9 9 9 8 8 6 4 3 3 4 5 8 9 8 7 7 6 5 5 4 3 2 1 3 2 2 4 5 5 5 6 4 5 7 8 9 9 7 6 8
15 16 15 12 11 10 10 10 9 9 9 9 9 11 11 11 10 10 10 10 9 8 7 6 7 8 8 8 7 6 6 6 5 3 5 5 4 4 7 8 5 6 6 5 4 3 4 3 1 2 3 7 11 14 10 4 1 3 6 8 7 8 9
17 17 15 12 12 11 11 11 9 9 10 10 10 11 11 11 10 10 9 9 9 7 6 5 6 7 7 8 9 9 10 10 10 8 6 5 3 3 6 7 7 7 6 6 6 6 5 5 3 0 2 4 8 14 18 17 13 10 8 5 4 4 5
20 18 16 15 14 12 12 11 9 9 10 11 11 10 9 9 8 7 7 8 9 8 7 6 6 7 7 8 9 10 11 11 11 10 10 9 7 6 6 6 6 6 4 4 5 5 4 4 4 1 2 3 5 9 16 21 22 20 18 17 16 14 10
22 19 19 17 15 14 13 12 10 10 11 12 12 11 10 8 6 6 8 10 10 9 8 7 7 7 8 9 9 10 11 11 11 10 10 11 11 10 9 7 6 5 5 5 4 3 4 5 5 3 2 3 4 5 9 14 19 21 21 21 22 22 19
22 19 19 18 16 14 13 12 12 11 12 12 13 13 11 9 7 7 9 11 11 10 9 8 8 8 8 9 9 10 10 10 9 9 9 10 10 11 11 10 9 9 9 8 5 4 4 4 5 4 3 4 3 4 6 9 12 15 18 21 21 21 21
22 19 19 18 16 15 13 13 12 12 12 13 14 14 12 10 9 9 10 10 11 11 11 10 9 8 8 8 9 9 10 9 9 9 9 9 9 9 9 9 9 9 9 8 6 6 6 5 5 4 3 4 4 4 5 7 9 11 12 15 19 19 18
22 19 18 17 16 15 14 13 13 12 12 12 13 14 13 12 10 10 10 10 11 11 11 11 10 9 8 9 9 9 9 9 8 9 9 9 9 9 9 9 9 9 9 8 8 9 9 9 10 8 4 4 3 4 4 5 10 13 11 10 15 19 18
23 20 19 17 17 15 14 14 13 12 12 12 13 13 13 12 11 11 10 10 10 11 11 10 10 10 9 9 9 9 10 8 8 9 9 9 9 9 8 8 9 10 10 9 9 10 11 11 12 12 10 7 4 1 3 4 5 9 13 12 13 18 18
25 22 19 17 17 17 15 15 13 13 13 13 13 13 12 12 11 11 11 10 10 10 10 9 9 9 9 9 9 9 9 9 8 9 8 8 8 8 8 8 9 11 11 10 10 10 10 11 11 12 13 12 8 4 2 3 3 4 11 15 14 16 18
27 23 19 17 19 19 17 16 15 13 13 13 13 13 12 11 11 11 12 11 10 9 9 8 8 8 8 9 10 10 10 9 8 9 7 7 8 7 8 9 9 11 11 10 10 10 10 10 10 11 12 12 13 9 5 3 2 3 8 13 15 16 17
28 25 20 16 20 22 19 17 16 14 14 14 14 14 12 11 10 12 13 12 11 10 9 8 8 8 8 9 9 10 10 9 8 8 7 6 6 6 7 9 8 9 10 9 9 8 8 9 9 9 10 10 12 11 8 5 2 4 8 11 14 14 15
31 28 23 18 22 24 21 19 18 16 15 14 14 14 13 11 11 12 13 14 13 12 11 10 9 8 8 8 8 9 9 9 8 8 7 6 6 5 6 7 6 6 6 6 6 6 6 7 7 7 8 9 10 10 9 8 4 2 5 9 12 14 16
30 30 25 20 22 24 23 21 20 19 18 16 15 14 13 12 12 12 13 14 14 14 12 11 10 9 9 8 8 8 8 8 8 7 7 6 6 5 4 5 5 5 4 3 3 4 5 6 6 6 7 7 9 9 9 9 7 4 4 8 11 13 16
27 28 25 21 22 25 24 23 22 22 21 19 17 15 14 15 14 13 13 13 14 14 13 12 11 10 10 9 8 8 8 8 8 7 7 7 7 6 5 4 4 4 3 2 2 2 3 4 4 5 6 6 7 9 10 10 10 7 7 10 12 14 17
25 26 25 22 23 25 25 25 24 24 23 21 19 17 16 16 16 15 15 14 13 13 13 13 12 12 11 10 9 9 8 8 8 7 7 7 8 7 6 5 4 3 3 2 2 2 2 2 2 3 4 5 6 8 9 10 10 9 10 12 14 16 18
20 21 22 22 21 20 19 19 21 23 22 20 20 20 19 19 19 18 18 17 15 14 14 14 14 13 12 12 11 10 10 9 9 9 8 8 8 7 7 6 5 4 3 2 2 2 1 2 1 2 3 4 6 8 9 9 10 9 9 11 13 15 17
15 14 16 17 18 15 13 15 18 20 20 19 21 23 23 23 22 22 22 20 18 16 15 15 14 14 13 13 12 12 12 11 11 11 10 10 10 9 8 7 6 6 5 4 4 3 3 2 1 1 2 3 5 7 8 8 9 9 9 11 12 14 16
17 16 15 16 18 17 16 19 22 21 21 21 22 24 24 24 24 25 26 24 22 19 17 16 15 15 14 14 14 14 14 14 13 13 13 12 12 12 11 10 9 9 9 8 7 6 6 5 3 2 2 3 4 6 8 8 9 9 10 11 12 14 17
18 20 20 21 21 18 18 20 19 17 18 20 21 23 23 23 25 27 29 29 27 23 19 18 17 17 17 17 17 17 17 17 16 16 16 15 15 15 14 13 12 12 12 11 10 9 7 6 5 4 3 3 4 6 8 8 8 9 9 10 12 15 17
20 22 24 23 20 18 18 19 16 13 14 16 17 18 18 18 21 23 25 29 30 26 22 20 19 18 19 20 21 21 21 20 20 20 19 18 18 18 17 16 16 15 15 14 13 11 9 8 7 5 4 4 4 5 6 6 7 7 8 10 12 15 17
21 23 23 21 20 20 20 19 17 17 18 18 18 18 18 17 17 18 21 25 25 22 18 17 16 17 18 20 22 23 23 23 23 23 24 22 21 21 20 19 18 18 17 17 15 14 11 9 8 7 6 5 5 4 3 4 4 5 6 8 11 14 17
17 19 19 18 17 20 21 20 19 21 22 21 19 19 19 19 19 21 22 21 19 16 14 15 15 15 16 17 18 19 20 21 22 24 26 26 25 24 23 23 22 21 20 19 17 15 13 11 10 8 7 6 6 5 3 1 2 3 4 6 8 11 14
13 14 15 14 15 18 19 15 13 15 17 18 18 19 20 20 21 20 17 13 11 11 12 12 12 13 13 14 15 16 17 19 20 22 26 28 27 27 26 26 25 23 22 21 19 17 15 14 11 9 7 6 6 6 5 3 2 2 3 5 6 8 10
11 11 11 11 13 15 14 10 10 12 14 15 15 15 14 12 10 7 4 4 5 6 7 8 8 9 11 11 13 15 16 18 19 20 23 25 27 27 27 27 27 25 24 23 21 19 17 14 11 8 7 7 6 7 6 5 3 2 3 4 6 9 9
9 9 9 8 9 9 9 9 10 11 10 10 9 6 5 3 1 1 2 3 3 4 4 5 6 7 7 8 10 12 13 15 16 17 19 20 22 24 26 27 27 26 25 23 22 20 17 14 11 9 8 7 7 6 6 7 6 5 5 6 7 9 10
7 7 7 7 8 8 8 8 8 8 7 6 4 3 2 1 2 2 3 4 4 5 5 5 6 6 7 8 8 9 10 11 12 14 15 17 18 21 23 25 26 26 25 24 22 20 17 13 11 10 9 8 7 7 8 9 9 8 8 8 10 10 11
6 7 8 8 8 7 7 6 5 5 4 3 2 1 2 2 3 4 5 6 6 7 7 7 8 8 8 9 9 9 9 9 10 11 13 15 16 18 20 22 24 25 25 24 22 19 16 13 12 11 10 9 9 9 9 10 10 10 10 10 11 11 12
6 7 8 8 6 5 4 4 3 2 1 1 1 2 3 5 6 7 8 9 10 10 10 10 11 10 10 10 10 10 9 9 10 10 12 14 15 16 18 19 21 22 23 23 21 18 14 13 12 11 11 10 10 10 10 9 10 10 10 11 11 12 13
6 7 8 9 7 5 4 4 4 4 4 3 4 4 6 7 8 9 10 11 12 13 13 13 13 13 12 12 12 11 10 9 9 10 11 12 12 13 14 16 18 20 21 20 17 15 13 13 12 11 11 10 9 9 9 9 9 10 11 12 12 13 14
5 7 10 11 9 7 6 5 6 6 6 6 6 6 8 8 9 10 12 13 14 15 15 15 14 14 13 13 12 11 10 9 8 8 8 9 9 9 10 11 13 15 16 15 13 13 13 12 12 11 11 10 9 9 8 9 10 11 12 12 12 12 13
3 5 8 10 9 8 8 7 7 7 7 7 7 7 8 8 8 10 11 14 16 17 16 15 15 14 12 11 9 8 9 8 7 6 7 7 8 9 10 11 11 11 11 12 12 12 11 10 9 9 9 8 8 8 10 11 12 12 12 12 12 12 12
4 4 5 6 7 7 8 7 7 7 7 8 8 8 8 8 8 9 10 13 16 16 15 14 13 12 10 8 6 6 8 8 8 9 9 10 11 12 12 11 10 10 10 11 10 9 7 6 6 6 6 7 7 9 10 11 11 12 12 12 12 13 13
8 7 7 6 6 6 6 6 6 7 8 8 8 8 7 8 8 8 9 11 13 13 13 12 10 9 8 6 4 4 7 9 10 11 12 13 12 12 12 11 10 9 9 8 7 5 4 3 3 4 5 7 7 8 8 9 9 10 11 12 12 13 13
11 10 9 7 6 5 5 4 5 5 6 7 8 8 8 8 7 8 8 9 10 10 10 9 8 7 6 5 4 4 7 9 11 13 13 14 13 11 11 10 9 8 7 6 4 3 3 3 4 5 5 5 5 6 7 7 9 10 11 12 13 13 14
12 12 10 9 8 7 6 5 5 6 6 7 7 8 8 8 9 9 8 8 8 8 8 7 6 6 6 5 4 5 6 9 12 13 12 12 12 11 10 9 8 6 5 3 2 3 3 4 4 4 4 4 5 6 7 8 10 11 12 13 14 16 17
11 11 11 10 10 10 9 8 7 7 8 8 9 10 10 11 11 11 9 8 7 8 8 7 6 6 5 5 5 6 7 9 10 10 10 10 11 10 9 8 6 4 3 2 3 3 3 2 2 2 3 4 5 6 7 9 10 12 13 15 16 18 18
Wind_Direction
176 162 156 154 153 153 151 153 153 143 129 121 118 125 143 146 137 135 140 138 129 124 120 110 103 102 109 118 129 148 165 174 202 202 188 198 210 201 182 155 108 88 101 127 155 131 136 124 41 71 87 98 78 36 353 281 276 266 262 265 266 267 264
173 161 157 158 159 160 157 153 151 145 135 128 124 125 130 133 130 132 136 136 131 128 124 113 106 104 105 111 113 113 117 117 115 135 163 179 198 203 195 183 147 108 102 106 109 97 96 97 27 358 56 92 75 50 51 66 301 260 255 265 276 284 281
166 162 160 161 161 160 153 149 146 143 142 140 136 131 129 127 125 127 131 135 137 135 131 120 109 105 102 105 107 104 102 102 103 105 108 112 119 145 170 175 154 130 111 89 82 82 80 83 102 78 24 74 67 51 58 67 70 76 77 65 35 345 318
168 167 165 163 161 162 157 154 153 148 148 149 148 144 140 135 129 125 130 136 140 141 137 127 113 105 102 106 110 107 102 98 102 104 97 89 90 104 131 156 154 140 124 97 79 73 77 89 102 100 25 63 79 64 63 67 70 74 72 67 62 55 44
172 171 169 168 169 170 167 164 163 158 154 155 157 157 153 153 149 135 128 125 125 128 131 126 118 113 110 112 115 114 109 105 106 105 97 90 87 92 103 121 128 117 104 106 105 94 103 121 125 113 68 82 93 79 73 72 69 67 66 63 60 60 61
175 175 173 173 175 178 179 177 176 174 168 165 165 165 161 164 166 148 133 122 114 112 115 116 116 119 123 122 120 119 116 115 115 111 103 96 92 94 99 105 106 99 93 91 93 96 104 121 121 113 94 91 103 97 80 74 72 68 62 58 55 57 61
178 178 177 176 179 186 192 191 189 189 186 179 174 172 170 171 170 158 143 130 120 113 110 111 112 118 128 131 129 125 119 119 120 116 110 103 99 98 103 104 97 89 84 77 72 74 78 80 77 83 106 89 76 84 76 69 72 67 57 52 49 49 53
183 181 183 182 183 191 200 201 200 202 203 194 182 177 176 176 174 167 157 140 130 124 115 113 114 115 121 126 132 132 125 123 120 115 112 107 103 100 101 100 95 88 82 78 77 72 70 69 60 55 81 106 74 44 40 59 65 54 45 48 45 40 43
187 184 186 189 190 196 205 207 206 210 211 203 191 184 181 182 179 175 170 156 144 137 128 123 122 122 123 122 127 131 131 135 129 119 117 111 103 101 101 99 95 95 95 93 88 78 70 66 60 54 55 71 96 86 12 26 49 46 39 40 39 33 34
193 187 185 193 200 203 209 212 212 215 213 208 200 191 185 186 185 182 180 173 163 152 142 137 135 134 132 127 127 128 133 142 140 131 129 120 109 104 103 104 102 101 104 103 95 84 73 67 65 62 55 53 65 101 102 26 5 30 34 31 30 26 24
196 190 186 195 205 206 209 214 214 213 211 209 207 200 191 189 188 187 188 186 179 170 159 151 149 149 145 140 137 133 133 144 148 142 137 129 120 111 104 109 111 106 106 106 96 86 77 70 65 64 62 57 58 71 95 81 21 16 27 27 27 22 15
198 192 186 194 209 210 210 213 214 214 211 209 210 207 200 195 191 190 193 196 192 187 183 173 165 164 161 156 152 145 141 149 157 155 152 147 136 125 116 116 118 114 111 109 100 88 78 73 67 63 60 58 60 61 66 84 70 7 19 25 25 18 10
201 194 187 192 209 212 211 212 214 217 214 211 212 210 208 206 202 198 197 200 201 199 197 192 183 178 175 170 166 158 152 157 163 162 163 165 154 139 128 118 114 116 117 114 103 89 77 70 67 68 62 57 61 55 49 63 72 19 27 25 16 11 4
204 197 190 191 204 211 214 214 216 220 219 217 215 213 215 216 214 211 206 204 207 208 207 203 196 192 186 180 176 173 170 170 171 167 167 177 174 163 144 116 106 108 112 119 105 83 77 74 67 69 64 52 52 45 34 39 41 31 25 14 8 5 360
207 202 194 192 203 211 215 216 219 222 222 220 220 220 222 222 222 222 218 213 213 215 217 214 209 206 202 195 190 190 190 186 184 178 175 182 183 181 178 153 126 117 110 124 140 119 91 83 75 68 59 44 39 33 22 20 21 14 360 356 358 358 357
210 206 197 198 208 214 219 221 222 225 227 224 224 227 232 231 229 231 230 225 219 220 224 224 221 221 219 216 210 207 208 207 204 201 193 189 189 192 197 194 178 158 135 123 146 159 147 117 96 74 63 47 34 28 18 11 12 10 357 350 351 355 356
208 205 199 207 217 220 224 226 225 226 226 226 227 230 234 235 235 235 235 233 228 225 226 226 228 229 230 231 229 225 225 224 225 225 218 208 206 209 212 214 214 204 193 184 173 176 178 150 112 82 67 41 24 20 13 7 8 10 1 352 352 355 356
195 192 195 214 226 228 231 237 239 232 221 222 230 231 231 235 240 243 242 237 232 232 231 230 232 235 236 238 239 240 240 237 238 239 236 231 228 226 223 223 227 225 224 228 225 225 229 226 244 345 11 11 11 8 5 2 1 1 360 358 356 354 354
183 181 192 218 229 229 227 231 238 234 220 223 233 235 235 238 243 251 255 249 237 235 238 237 238 241 243 245 246 248 248 247 248 247 245 242 239 239 237 233 232 233 232 234 233 232 230 231 242 265 304 334 347 353 356 356 353 350 354 360 0 356 355
196 194 204 218 222 219 215 215 221 222 218 224 233 237 239 239 239 247 259 260 249 242 243 244 245 248 250 252 252 252 252 251 252 251 251 248 244 242 242 239 239 240 239 238 236 234 234 235 241 249 262 284 313 336 347 349 347 346 351 357 358 356 356
212 207 210 217 218 214 214 215 216 218 222 229 237 241 241 240 239 242 251 256 253 250 249 250 251 254 257 258 258 257 256 255 255 255 253 251 249 245 243 242 242 243 243 242 239 237 237 237 239 240 244 259 289 324 342 347 346 346 349 353 355 353 350
211 209 210 217 221 223 227 232 235 238 244 249 251 252 249 248 250 249 247 248 248 247 249 251 255 259 262 263 262 261 260 258 258 258 255 253 253 250 246 244 243 243 243 243 241 237 234 236 237 236 237 248 271 303 329 338 337 336 341 347 348 347 344
204 207 210 216 224 229 233 239 244 247 252 257 258 258 255 251 248 245 241 243 244 244 249 256 262 265 266 266 265 264 263 262 260 259 257 253 251 251 250 246 244 242 241 240 239 234 229 229 230 230 235 248 269 284 281 284 305 313 329 341 341 340 338
201 205 209 214 220 222 222 225 231 236 243 248 249 248 245 240 238 237 238 245 254 257 262 266 267 268 268 268 268 267 266 266 264 262 258 254 251 253 252 248 244 241 239 236 232 227 225 225 222 222 233 252 277 290 285 263 238 251 303 322 323 324 324
197 200 206 209 211 212 211 208 209 215 223 227 229 230 229 228 233 244 261 285 285 280 281 282 281 279 277 274 272 270 268 267 265 263 261 258 256 257 256 252 246 240 238 234 227 221 219 218 216 222 241 258 279 293 295 291 278 264 280 293 301 307 308
194 201 208 208 205 201 191 184 185 190 194 196 197 196 195 193 162 30 8 350 331 314 301 294 291 290 290 289 283 277 273 270 268 266 266 264 263 262 259 254 246 239 234 229 224 219 215 211 213 227 244 260 277 287 290 294 295 291 284 284 290 297 299
198 203 201 194 188 176 166 163 160 158 160 161 160 156 148 106 57 27 2 349 333 320 313 305 297 290 290 291 289 285 279 274 271 271 271 271 269 266 262 256 247 237 229 221 217 216 212 211 220 231 241 255 268 275 279 282 282 279 278 282 285 288 292
182 183 175 172 173 170 169 168 160 157 153 139 129 106 60 23 9 357 345 333 324 322 323 318 312 308 302 296 289 283 276 271 272 273 274 274 272 269 265 258 247 236 226 219 215 214 213 217 224 230 236 247 256 264 272 274 272 270 273 280 284 287 291
179 181 178 181 189 191 196 199 195 203 223 57 25 5 358 345 339 338 337 333 327 325 325 321 317 315 312 305 296 284 272 267 271 273 275 275 273 269 264 256 246 235 225 218 212 209 212 218 224 228 235 243 252 259 265 267 268 272 278 283 288 291 292
204 208 208 209 216 223 229 237 246 263 284 296 307 321 327 329 331 331 333 333 330 327 325 322 317 314 312 309 302 289 273 266 267 269 272 273 271 268 261 252 241 229 218 210 206 207 212 217 222 230 238 243 247 252 257 264 274 283 290 292 293 295 296
233 231 223 221 226 233 237 245 254 260 267 275 285 298 307 313 319 325 331 334 332 329 326 322 318 314 309 304 297 284 270 263 262 261 260 256 253 248 236 226 221 214 206 201 203 208 213 218 225 233 238 239 240 245 255 268 279 286 290 294 295 295 297
266 242 229 228 232 234 233 236 241 244 251 263 275 284 289 295 304 314 323 327 328 327 325 322 320 316 309 299 286 271 260 253 241 232 225 212 204 201 196 193 193 197 198 196 198 203 208 217 228 232 236 241 249 260 270 277 282 286 290 294 296 297 297
315 291 262 250 243 235 231 233 237 243 253 262 267 270 272 278 287 296 308 321 326 325 322 318 314 312 309 300 280 256 247 239 220 201 192 185 178 172 171 172 172 178 189 192 193 197 202 212 227 235 251 267 274 276 279 283 288 292 296 299 300 302 304
290 285 278 271 262 249 246 250 256 259 261 259 255 256 258 262 271 284 302 318 324 321 315 310 305 303 302 296 279 249 237 230 215 196 184 179 177 171 165 163 159 160 172 178 179 185 193 213 246 266 277 282 281 280 283 288 293 296 299 301 302 303 304
253 253 255 256 256 254 259 269 279 286 285 271 255 249 248 253 265 282 297 312 317 311 302 297 295 294 291 286 270 244 233 222 210 201 190 180 177 173 167 163 159 157 163 170 175 193 229 261 277 281 283 281 282 286 291 297 300 301 303 304 304 304 305
231 235 240 243 245 246 253 267 283 296 296 276 252 242 244 252 264 274 281 290 295 289 278 274 274 273 270 263 243 229 224 212 205 204 198 184 173 167 162 160 161 164 173 192 227 264 284 292 291 287 283 280 282 287 293 299 303 305 306 307 307 306 308
229 228 228 233 240 245 252 261 272 280 281 268 253 247 248 251 255 257 256 257 257 251 243 240 241 239 236 231 219 210 204 197 194 197 192 177 166 163 161 161 166 181 214 255 283 299 312 321 316 307 299 292 292 296 301 306 310 311 310 310 309 308 308